カタログに戻る

QPS-SAR-7 TSUKUYOMI-II

運用中科学VLEO
NORAD 59447·PAYLOAD·🇯🇵 Japan

打ち上げ Apr 7, 2024 から Cape Canaveral Space Force Station

Loading…

次のパス (今後24時間)

TLE

最新Source: Space-Track

元期: Sep 14, 2026, 15:35 UTC

1 59447U 24066F   26257.64942140  .00005437  00000-0  34557-3 0  9995
2 59447  45.6026 135.4605 0001045 147.8405 212.2544 15.09895597133743

AllMySatでQPS-SAR-7 TSUKUYOMI-IIをリアルタイム追跡

Download on the App Store